Location: Ferris
(32.5340°N, 96.6656°W)
Time: 22:39:12
(UTC+00:00)

Cosmos 1354 Rocket - Pass Details

Date: 21 May 2026
Orbit: 761 x 778 km, 74.0° (Epoch: 7 June)

Event Time Altitude Azimuth Distance (km) Brightness Sun altitude
Rises 05:04:48 0° 324° (NW) 3,227 8.2 -34.0°
Reaches altitude 10° 05:07:48 10° 307° (NW) 2,295 7.1 -34.3°
Enters shadow 05:10:14 18° 280° (W) 1,819 6.2 -34.5°
